GW3034 Weather Reports


time (UTC)temp
C
wind
direction
speed
KPH
gust
KPH
rain 1hr
cm
rain 24hr
cm
rain mn
cm
humidity
%
barometer
mb
20260505210046 23 317 6.4 24.1 0.00 0.33 0.33 42 1009.7
20260505204550 22 285 6.4 14.5 0.00 0.33 0.33 42 1009.9
20260505203054 22 320 4.8 17.7 0.00 0.33 0.33 44 1010.1
20260505201546 21 67 1.6 9.7 0.00 0.33 0.33 48 1010.3
20260505200100 21 22 4.8 12.9 0.00 0.33 0.33 48 1010.4
20260505194555 21 102 1.6 14.5 0.00 0.33 0.33 50 1010.7
20260505193046 21 352 8.0 17.7 0.00 0.33 0.33 50 1010.9
20260505191543 21 277 6.4 12.9 0.00 0.33 0.33 48 1011.2
20260505190051 20 0 0.0 4.8 0.00 0.33 0.33 50 1011.5
20260505184549 20 0 3.2 11.3 0.00 0.33 0.33 52 1011.9
20260505183050 21 57 1.6 6.4 0.00 0.33 0.33 52 1011.8
20260505181546 20 0 0.0 8.0 0.00 0.33 0.33 51 1012.1
20260505180045 20 352 3.2 9.7 0.00 0.33 0.33 52 1012.2
20260505174546 20 169 4.8 11.3 0.00 0.33 0.33 56 1012.3
20260505173048 18 0 6.4 16.1 0.00 0.33 0.33 59 1012.4
20260505171546 18 0 1.6 16.1 0.00 0.33 0.33 59 1012.6
20260505170046 17 0 1.6 11.3 0.00 0.33 0.33 60 1012.6
20260505164546 17 138 8.0 14.5 0.00 0.33 0.33 63 1012.6
20260505163046 17 115 1.6 14.5 0.00 0.33 0.33 65 1012.7
20260505161545 17 0 1.6 9.7 0.00 0.33 0.33 62 1012.7
20260505153051 16 130 6.4 11.3 0.00 0.33 0.33 68 1012.8
20260505151546 15 119 1.6 11.3 0.00 0.33 0.33 72 1012.8
20260505124559 13 84 11.3 17.7 0.05 0.25 0.25 79 1011.5
20260505123045 13 80 8.0 14.5 0.05 0.23 0.23 77 1011.7
20260505121549 13 76 8.0 17.7 0.03 0.20 0.20 77 1011.5
20260505120053 14 117 8.0 17.7 0.03 0.20 0.20 79 1011.6
20260505114548 14 128 14.5 19.3 0.03 0.20 0.20 80 1011.7
20260505113045 14 104 4.8 11.3 0.03 0.18 0.18 80 1011.9
20260505111547 14 81 3.2 8.0 0.08 0.18 0.18 80 1012.2
20260505101547 14 0 0.0 3.2 0.08 0.10 0.10 82 1013.4
20260505100047 14 9 1.6 4.8 0.08 0.08 0.08 80 1013.4
20260505094544 14 0 0.0 4.8 0.05 0.05 0.05 79 1013.6
20260505093049 14 9 3.2 12.9 0.03 0.03 0.03 79 1013.5
20260505091550 15 338 4.8 17.7 0.03 0.03 0.03 79 1013.3
20260505090050 15 328 8.0 19.3 0.00 0.00 0.00 78 1013.5
20260505084549 15 327 12.9 20.9 0.00 0.00 0.00 75 1013.9
20260505083042 15 315 11.3 20.9 0.00 0.00 0.00 74 1013.9
20260505081553 15 340 4.8 12.9 0.00 0.00 0.00 76 1014.0
20260505080054 16 306 8.0 19.3 0.00 0.00 0.00 73 1013.9
20260505074548 16 323 11.3 20.9 0.00 0.00 0.00 70 1013.7
20260505073053 16 302 16.1 24.1 0.00 0.00 0.00 71 1013.7
20260505071546 16 315 14.5 20.9 0.00 0.00 0.00 71 1013.7
20260505070054 16 313 14.5 24.1 0.00 0.00 0.00 70 1014.0
20260505064549 16 296 12.9 24.1 0.00 0.00 0.00 67 1013.6
20260505063110 17 300 11.3 22.5 0.00 0.00 0.00 64 1013.4
20260505061546 17 316 11.3 22.5 0.00 0.00 0.00 65 1013.0
20260505060054 17 309 11.3 22.5 0.00 0.00 0.00 66 1013.4
20260505054602 17 309 8.0 20.9 0.00 0.00 0.00 63 1013.3
20260505053058 17 326 8.0 22.5 0.00 0.00 0.00 62 1013.0
20260505051549 17 11 11.3 24.1 0.00 0.00 0.00 63 1013.0
20260505041554 16 337 6.4 12.9 0.00 0.00 0.00 65 1014.2
20260505040054 17 29 3.2 20.9 0.00 0.00 0.00 64 1014.1
20260505034545 17 311 9.7 27.4 0.00 0.00 0.00 58 1014.2
20260505033046 18 304 14.5 25.7 0.00 0.00 0.00 56 1013.7
20260505031554 18 312 12.9 24.1 0.00 0.00 0.00 52 1013.4
20260505030043 18 360 9.7 29.0 0.00 0.00 0.00 53 1013.2
20260505024555 18 336 20.9 30.6 0.00 0.00 0.00 50 1013.3
20260505023043 18 323 19.3 32.2 0.00 0.00 0.00 51 1013.1
20260505021547 19 350 19.3 37.0 0.00 0.00 0.00 44 1012.7
20260505020045 19 352 14.5 27.4 0.00 0.00 0.00 42 1012.5
20260505014602 18 22 12.9 29.0 0.00 0.00 0.00 46 1012.5
20260505013043 18 19 19.3 30.6 0.00 0.00 0.00 47 1012.8
20260505011556 20 320 12.9 32.2 0.00 0.00 0.00 38 1013.3
20260505010049 22 309 24.1 40.2 0.00 0.00 0.00 29 1013.2
20260505004548 22 267 16.1 35.4 0.00 0.00 0.00 26 1012.6
20260505003048 23 300 22.5 38.6 0.00 0.00 0.00 25 1012.4
20260505001545 23 304 24.1 43.5 0.00 0.00 0.00 25 1012.5
20260505000058 23 315 30.6 51.5 0.00 0.00 0.00 24 1012.3
20260504234553 24 292 30.6 49.9 0.00 0.00 0.00 25 1011.8
20260504233105 25 297 24.1 48.3 0.00 0.00 0.00 23 1011.5
20260504231550 25 292 25.7 53.1 0.00 0.00 0.00 21 1011.4
20260504230053 25 264 33.8 51.5 0.00 0.00 0.00 20 1011.4
20260504224556 26 302 30.6 49.9 0.00 0.00 0.00 20 1011.4
20260504223110 26 273 32.2 53.1 0.00 0.00 0.00 20 1011.2
20260504221547 27 297 22.5 38.6 0.00 0.00 0.00 17 1011.1
20260504220050 27 296 29.0 48.3 0.00 0.00 0.00 17 1011.0
20260504214546 27 316 22.5 40.2 0.00 0.00 0.00 17 1011.1
20260504213053 28 296 22.5 37.0 0.00 0.00 0.00 18 1011.0
20260504211549 28 310 16.1 32.2 0.00 0.00 0.00 16 1010.7